Eureka, Nunavut

1:32 PM CST on February 09, 2016 (GMT -0600)
Eureka

Weather History for CWEU - April, 2013

Change the Weather History Date:

Monday, April 1, 2013

  Actual Average Record
Temperature  
Mean Temperature -30 °F -  
Max Temperature -24 °F -10 °F 10 °F (2012)
Min Temperature -35 °F -25 °F -47 °F (2002)
Degree Days  
Heating Degree Days 94    
Moisture  
Dew Point -39 °F    
Average Humidity 59    
Maximum Humidity 68    
Minimum Humidity 40    
Precipitation  
Precipitation 0.00 in 0.00 in - ()
Sea Level Pressure  
Sea Level Pressure 30.16 in    
Wind  
Wind Speed 2 mph ()    
Max Wind Speed 5 mph    
Max Gust Speed -    
Visibility 15.0 miles    
Events Snow    
Averages and records for this station are not official NWS values.
T = Trace of Precipitation, MM = Missing Value Source: Averaged Metar Reports

Daily Weather History Graph

Daily Weather History Graph

Search for Another Location

Airport or City:

Trip Planner

Search our weather history database for the weather conditions in past years. The results will help you decide how hot, cold, wet, or windy it might be!

Date:

Astronomy

Apr. 01, 2013 Rise Set
Actual Time 4:34 AM CDT 9:07 PM CDT
Civil Twilight 1:20 AM CDT 12:14 AM CDT
Nautical Twilight Sun does not rise Sun does not rise
Astronomical Twilight Sun does not rise Sun does not rise
Moon No Moon Rise No Moon Set
Length of Visible Light 22h 54m
Length of Day
16h 32m
Waning Gibbous, 67% of the Moon is Illuminated
Apr 1
Waning Gibbous
Apr 2
Last Quarter
Apr 10
New
Apr 18
First Quarter
Apr 25
Full

Hourly Weather History & Observations

Time (CDT) Temp. Windchill Dew Point Humidity Pressure Visibility Wind Dir Wind Speed Gust Speed Precip Events Conditions
1:00 AM -30 °F - -40 °F 40% 30.12 in 15 mi SE 4.6 mph - - Snow Snow
1:00 AM -31.0 °F -43.3 °F -40.0 °F 62% 30.12 in 15.0 mi SE 3.5 mph - N/A   Partly Cloudy
2:00 AM -32.8 °F -45.3 °F -41.8 °F 62% 30.12 in 15.0 mi ESE 3.5 mph - N/A   Partly Cloudy
3:00 AM -34.6 °F - -43.6 °F 61% 30.13 in 15.0 mi ENE 2.3 mph - N/A   Partly Cloudy
4:00 AM -32.8 °F - -41.8 °F 62% 30.13 in 15.0 mi Calm Calm - N/A   Scattered Clouds
6:00 AM -34.6 °F - -41.8 °F 68% 30.14 in 15.0 mi Calm Calm - N/A   Mostly Cloudy
7:00 AM -33 °F - -43 °F 40% 30.14 in 15 mi SE 3.5 mph - - Snow Snow
7:00 AM -32.8 °F -45.3 °F -41.8 °F 62% 30.14 in 15.0 mi SE 3.5 mph - N/A   Mostly Cloudy
8:00 AM -32.8 °F -45.3 °F -40.0 °F 68% 30.14 in 15.0 mi East 3.5 mph - N/A   Mostly Cloudy
9:00 AM -32.8 °F - -41.8 °F 62% 30.15 in 15.0 mi Calm Calm - N/A   Mostly Cloudy
10:00 AM -31.0 °F - -38.2 °F 68% 30.14 in 15.0 mi Calm Calm - N/A   Mostly Cloudy
11:00 AM -29.2 °F -44.0 °F -38.2 °F 62% 30.15 in 15.0 mi SSE 4.6 mph - N/A   Mostly Cloudy
12:00 PM -27.4 °F - -36.4 °F 62% 30.15 in 15.0 mi East 2.3 mph - N/A   Overcast
1:00 PM -27 °F - -36 °F 43% 30.16 in 15 mi Calm Calm - - Snow Snow
1:00 PM -27.4 °F - -36.4 °F 62% 30.16 in 15.0 mi ENE 2.3 mph - N/A   Overcast
2:00 PM -27.4 °F - -36.4 °F 62% 30.16 in 15.0 mi Calm Calm - N/A   Mostly Cloudy
3:00 PM -25.6 °F -39.8 °F -34.6 °F 63% 30.17 in 15.0 mi SE 4.6 mph - N/A   Partly Cloudy
4:00 PM -25.6 °F -37.1 °F -34.6 °F 63% 30.18 in 15.0 mi East 3.5 mph - N/A   Mostly Cloudy
5:00 PM -25.6 °F -37.1 °F -34.6 °F 63% 30.19 in 15.0 mi East 3.5 mph - N/A   Mostly Cloudy
6:00 PM -25.6 °F -37.1 °F -36.4 °F 57% 30.20 in 15.0 mi East 3.5 mph - N/A   Mostly Cloudy
7:00 PM -28 °F - -37 °F 42% 30.21 in 15 mi East 2.3 mph - - Snow Snow
7:00 PM -27.4 °F - -36.4 °F 62% 30.21 in 15.0 mi ESE 2.3 mph - N/A   Scattered Clouds
8:00 PM -29.2 °F - -38.2 °F 62% 30.22 in 15.0 mi ESE 2.3 mph - N/A   Scattered Clouds
9:00 PM -31.0 °F - -40.0 °F 62% 30.22 in 15.0 mi East 2.3 mph - N/A   Partly Cloudy
10:00 PM -32.8 °F - -41.8 °F 62% 30.23 in 15.0 mi Calm Calm - N/A   Partly Cloudy